iso_date,epoch_date,Year,Hour,Min,DOY,POS_DOY,Lat,Lon,BP,Ts,Ta,has_bp,has_ts,has_ta,BuoyID,Buoy_Type,Buoy_Owner,Logistics,Hemisphere
2018-08-10T19:00:28Z,1533927629,2018,19,0,222.792,222.792,-58.114,-93.671,975.6,3.53,-999.0,yes,yes,no,300234064823080,BD2GI,AOML,ARAON,South
2018-08-10T19:59:31Z,1533931171,2018,20,0,222.833,222.833,-58.119,-93.671,974.8,3.53,-999.0,yes,yes,no,300234064823080,BD2GI,AOML,ARAON,South
2018-08-10T21:00:00Z,1533934800,2018,21,0,222.875,222.875,-58.123,-93.673,974.5,3.53,-999.0,yes,yes,no,300234064823080,BD2GI,AOML,ARAON,South
2018-08-10T22:00:28Z,1533938429,2018,22,0,222.917,222.917,-58.126,-93.676,973.9,3.53,-999.0,yes,yes,no,300234064823080,BD2GI,AOML,ARAON,South
2018-08-10T22:59:31Z,1533941971,2018,23,0,222.958,222.958,-58.129,-93.679,973.5,3.53,-999.0,yes,yes,no,300234064823080,BD2GI,AOML,ARAON,South
2018-08-11T00:00:00Z,1533945600,2018,0,0,223.0,223.0,-58.132,-93.683,972.8,3.53,-999.0,yes,yes,no,300234064823080,BD2GI,AOML,ARAON,South
2018-08-11T01:00:28Z,1533949229,2018,1,0,223.042,223.042,-58.135,-93.685,971.8,3.53,-999.0,yes,yes,no,300234064823080,BD2GI,AOML,ARAON,South
2018-08-11T01:59:31Z,1533952771,2018,2,0,223.083,223.083,-58.139,-93.688,971.0,3.49,-999.0,yes,yes,no,300234064823080,BD2GI,AOML,ARAON,South
2018-08-11T03:00:00Z,1533956400,2018,3,0,223.125,223.125,-58.141,-93.69,970.2,3.49,-999.0,yes,yes,no,300234064823080,BD2GI,AOML,ARAON,South
2018-08-11T04:00:28Z,1533960029,2018,4,0,223.167,223.167,-58.143,-93.69,969.8,3.46,-999.0,yes,yes,no,300234064823080,BD2GI,AOML,ARAON,South
2018-08-11T04:59:31Z,1533963571,2018,5,0,223.208,223.208,-58.145,-93.689,969.3,3.49,-999.0,yes,yes,no,300234064823080,BD2GI,AOML,ARAON,South
2018-08-11T06:00:00Z,1533967200,2018,6,0,223.25,223.25,-58.146,-93.686,969.0,3.49,-999.0,yes,yes,no,300234064823080,BD2GI,AOML,ARAON,South
2018-08-11T07:00:28Z,1533970829,2018,7,0,223.292,223.292,-58.148,-93.684,968.7,3.49,-999.0,yes,yes,no,300234064823080,BD2GI,AOML,ARAON,South
2018-08-11T07:59:31Z,1533974371,2018,8,0,223.333,223.333,-58.149,-93.681,968.3,3.46,-999.0,yes,yes,no,300234064823080,BD2GI,AOML,ARAON,South
2018-08-11T09:00:00Z,1533978000,2018,9,0,223.375,223.375,-58.15,-93.677,968.1,3.46,-999.0,yes,yes,no,300234064823080,BD2GI,AOML,ARAON,South
2018-08-11T10:00:28Z,1533981629,2018,10,0,223.417,223.417,-58.152,-93.673,968.0,3.46,-999.0,yes,yes,no,300234064823080,BD2GI,AOML,ARAON,South
2018-08-11T10:59:31Z,1533985171,2018,11,0,223.458,223.458,-58.154,-93.67,968.1,3.46,-999.0,yes,yes,no,300234064823080,BD2GI,AOML,ARAON,South
2018-08-11T12:00:00Z,1533988800,2018,12,0,223.5,223.5,-58.157,-93.665,968.1,3.49,-999.0,yes,yes,no,300234064823080,BD2GI,AOML,ARAON,South
2018-08-11T13:00:28Z,1533992429,2018,13,0,223.542,223.542,-58.161,-93.66,968.5,3.49,-999.0,yes,yes,no,300234064823080,BD2GI,AOML,ARAON,South
2018-08-11T13:59:31Z,1533995971,2018,14,0,223.583,223.583,-58.165,-93.654,968.6,3.49,-999.0,yes,yes,no,300234064823080,BD2GI,AOML,ARAON,South
2018-08-11T15:00:00Z,1533999600,2018,15,0,223.625,223.625,-58.169,-93.65,969.0,3.49,-999.0,yes,yes,no,300234064823080,BD2GI,AOML,ARAON,South
2018-08-11T16:00:28Z,1534003229,2018,16,0,223.667,223.667,-58.175,-93.642,969.4,3.49,-999.0,yes,yes,no,300234064823080,BD2GI,AOML,ARAON,South
2018-08-11T16:59:31Z,1534006771,2018,17,0,223.708,223.708,-58.18,-93.633,970.0,3.49,-999.0,yes,yes,no,300234064823080,BD2GI,AOML,ARAON,South
2018-08-11T18:00:00Z,1534010400,2018,18,0,223.75,223.75,-58.185,-93.623,970.8,3.53,-999.0,yes,yes,no,300234064823080,BD2GI,AOML,ARAON,South
2018-08-11T19:00:28Z,1534014029,2018,19,0,223.792,223.792,-58.19,-93.612,971.5,3.53,-999.0,yes,yes,no,300234064823080,BD2GI,AOML,ARAON,South
2018-08-11T19:59:31Z,1534017571,2018,20,0,223.833,223.833,-58.195,-93.601,972.0,3.53,-999.0,yes,yes,no,300234064823080,BD2GI,AOML,ARAON,South
2018-08-11T21:00:00Z,1534021200,2018,21,0,223.875,223.875,-58.198,-93.589,972.5,3.49,-999.0,yes,yes,no,300234064823080,BD2GI,AOML,ARAON,South
2018-08-11T22:00:28Z,1534024829,2018,22,0,223.917,223.917,-58.201,-93.581,973.0,3.49,-999.0,yes,yes,no,300234064823080,BD2GI,AOML,ARAON,South
2018-08-11T22:59:31Z,1534028371,2018,23,0,223.958,223.958,-58.204,-93.574,973.4,3.49,-999.0,yes,yes,no,300234064823080,BD2GI,AOML,ARAON,South
2018-08-12T00:00:00Z,1534032000,2018,0,0,224.0,224.0,-58.209,-93.57,973.7,3.49,-999.0,yes,yes,no,300234064823080,BD2GI,AOML,ARAON,South
2018-08-12T01:00:28Z,1534035629,2018,1,0,224.042,224.042,-58.212,-93.566,973.8,3.49,-999.0,yes,yes,no,300234064823080,BD2GI,AOML,ARAON,South
2018-08-12T01:59:31Z,1534039171,2018,2,0,224.083,224.083,-58.215,-93.563,973.6,3.49,-999.0,yes,yes,no,300234064823080,BD2GI,AOML,ARAON,South
2018-08-12T03:00:00Z,1534042800,2018,3,0,224.125,224.125,-58.218,-93.561,973.5,3.49,-999.0,yes,yes,no,300234064823080,BD2GI,AOML,ARAON,South
2018-08-12T04:00:28Z,1534046429,2018,4,0,224.167,224.167,-58.22,-93.559,973.3,3.49,-999.0,yes,yes,no,300234064823080,BD2GI,AOML,ARAON,South
2018-08-12T04:59:31Z,1534049971,2018,5,0,224.208,224.208,-58.222,-93.556,972.8,3.49,-999.0,yes,yes,no,300234064823080,BD2GI,AOML,ARAON,South
2018-08-12T06:00:00Z,1534053600,2018,6,0,224.25,224.25,-58.223,-93.553,972.7,3.49,-999.0,yes,yes,no,300234064823080,BD2GI,AOML,ARAON,South
2018-08-12T07:00:28Z,1534057229,2018,7,0,224.292,224.292,-58.224,-93.551,972.6,3.49,-999.0,yes,yes,no,300234064823080,BD2GI,AOML,ARAON,South
2018-08-12T07:59:31Z,1534060771,2018,8,0,224.333,224.333,-58.225,-93.548,972.5,3.49,-999.0,yes,yes,no,300234064823080,BD2GI,AOML,ARAON,South
2018-08-12T09:00:00Z,1534064400,2018,9,0,224.375,224.375,-58.227,-93.545,972.6,3.49,-999.0,yes,yes,no,300234064823080,BD2GI,AOML,ARAON,South
2018-08-12T10:00:28Z,1534068029,2018,10,0,224.417,224.417,-58.227,-93.54,972.6,3.49,-999.0,yes,yes,no,300234064823080,BD2GI,AOML,ARAON,South
2018-08-12T10:59:31Z,1534071571,2018,11,0,224.458,224.458,-58.226,-93.534,973.0,3.53,-999.0,yes,yes,no,300234064823080,BD2GI,AOML,ARAON,South
2018-08-12T12:00:00Z,1534075200,2018,12,0,224.5,224.5,-58.225,-93.53,973.2,3.53,-999.0,yes,yes,no,300234064823080,BD2GI,AOML,ARAON,South
2018-08-12T13:00:28Z,1534078829,2018,13,0,224.542,224.542,-58.224,-93.524,973.8,3.49,-999.0,yes,yes,no,300234064823080,BD2GI,AOML,ARAON,South
2018-08-12T13:59:31Z,1534082371,2018,14,0,224.583,224.583,-58.222,-93.519,974.5,3.49,-999.0,yes,yes,no,300234064823080,BD2GI,AOML,ARAON,South
2018-08-12T15:00:00Z,1534086000,2018,15,0,224.625,224.625,-58.221,-93.514,974.9,3.49,-999.0,yes,yes,no,300234064823080,BD2GI,AOML,ARAON,South
2018-08-12T16:00:28Z,1534089629,2018,16,0,224.667,224.667,-58.22,-93.509,975.4,3.53,-999.0,yes,yes,no,300234064823080,BD2GI,AOML,ARAON,South
2018-08-12T16:59:31Z,1534093171,2018,17,0,224.708,224.708,-58.222,-93.503,975.9,3.53,-999.0,yes,yes,no,300234064823080,BD2GI,AOML,ARAON,South
2018-08-12T18:00:00Z,1534096800,2018,18,0,224.75,224.75,-58.225,-93.497,976.4,3.53,-999.0,yes,yes,no,300234064823080,BD2GI,AOML,ARAON,South
2018-08-12T19:00:28Z,1534100429,2018,19,0,224.792,224.792,-58.227,-93.489,977.0,3.53,-999.0,yes,yes,no,300234064823080,BD2GI,AOML,ARAON,South
2018-08-12T19:59:31Z,1534103971,2018,20,0,224.833,224.833,-58.23,-93.482,977.4,3.53,-999.0,yes,yes,no,300234064823080,BD2GI,AOML,ARAON,South
2018-08-12T21:00:00Z,1534107600,2018,21,0,224.875,224.875,-58.231,-93.474,977.9,3.53,-999.0,yes,yes,no,300234064823080,BD2GI,AOML,ARAON,South
2018-08-12T22:00:28Z,1534111229,2018,22,0,224.917,224.917,-58.232,-93.464,978.9,3.53,-999.0,yes,yes,no,300234064823080,BD2GI,AOML,ARAON,South
2018-08-12T22:59:31Z,1534114771,2018,23,0,224.958,224.958,-58.232,-93.454,979.8,3.49,-999.0,yes,yes,no,300234064823080,BD2GI,AOML,ARAON,South
2018-08-13T00:00:00Z,1534118400,2018,0,0,225.0,225.0,-58.23,-93.445,980.3,3.49,-999.0,yes,yes,no,300234064823080,BD2GI,AOML,ARAON,South
2018-08-13T01:00:28Z,1534122029,2018,1,0,225.042,225.042,-58.227,-93.435,980.9,3.49,-999.0,yes,yes,no,300234064823080,BD2GI,AOML,ARAON,South
2018-08-13T01:59:31Z,1534125571,2018,2,0,225.083,225.083,-58.225,-93.425,981.3,3.49,-999.0,yes,yes,no,300234064823080,BD2GI,AOML,ARAON,South
2018-08-13T03:00:00Z,1534129200,2018,3,0,225.125,225.125,-58.224,-93.415,981.6,3.49,-999.0,yes,yes,no,300234064823080,BD2GI,AOML,ARAON,South
2018-08-13T04:00:28Z,1534132829,2018,4,0,225.167,225.167,-58.226,-93.405,981.7,3.49,-999.0,yes,yes,no,300234064823080,BD2GI,AOML,ARAON,South
2018-08-13T04:59:31Z,1534136371,2018,5,0,225.208,225.208,-58.23,-93.398,981.6,3.49,-999.0,yes,yes,no,300234064823080,BD2GI,AOML,ARAON,South
2018-08-13T06:00:00Z,1534140000,2018,6,0,225.25,225.25,-58.235,-93.391,981.6,3.49,-999.0,yes,yes,no,300234064823080,BD2GI,AOML,ARAON,South
2018-08-13T07:00:28Z,1534143629,2018,7,0,225.292,225.292,-58.239,-93.383,981.6,3.49,-999.0,yes,yes,no,300234064823080,BD2GI,AOML,ARAON,South
2018-08-13T07:59:31Z,1534147171,2018,8,0,225.333,225.333,-58.242,-93.375,981.4,3.49,-999.0,yes,yes,no,300234064823080,BD2GI,AOML,ARAON,South
2018-08-13T09:00:00Z,1534150800,2018,9,0,225.375,225.375,-58.246,-93.369,981.0,3.49,-999.0,yes,yes,no,300234064823080,BD2GI,AOML,ARAON,South
2018-08-13T10:00:28Z,1534154429,2018,10,0,225.417,225.417,-58.248,-93.363,981.0,3.49,-999.0,yes,yes,no,300234064823080,BD2GI,AOML,ARAON,South
2018-08-13T10:59:31Z,1534157971,2018,11,0,225.458,225.458,-58.25,-93.354,980.9,3.49,-999.0,yes,yes,no,300234064823080,BD2GI,AOML,ARAON,South
2018-08-13T12:00:00Z,1534161600,2018,12,0,225.5,225.5,-58.253,-93.348,980.6,3.46,-999.0,yes,yes,no,300234064823080,BD2GI,AOML,ARAON,South
2018-08-13T13:00:28Z,1534165229,2018,13,0,225.542,225.542,-58.257,-93.343,980.1,3.49,-999.0,yes,yes,no,300234064823080,BD2GI,AOML,ARAON,South
2018-08-13T13:59:31Z,1534168771,2018,14,0,225.583,225.583,-58.262,-93.341,979.0,3.49,-999.0,yes,yes,no,300234064823080,BD2GI,AOML,ARAON,South
2018-08-13T15:00:00Z,1534172400,2018,15,0,225.625,225.625,-58.268,-93.341,977.5,3.49,-999.0,yes,yes,no,300234064823080,BD2GI,AOML,ARAON,South
2018-08-13T16:00:28Z,1534176029,2018,16,0,225.667,225.667,-58.276,-93.345,975.9,3.49,-999.0,yes,yes,no,300234064823080,BD2GI,AOML,ARAON,South
2018-08-13T16:59:31Z,1534179571,2018,17,0,225.708,225.708,-58.285,-93.353,974.4,3.49,-999.0,yes,yes,no,300234064823080,BD2GI,AOML,ARAON,South
2018-08-13T18:00:00Z,1534183200,2018,18,0,225.75,225.75,-58.293,-93.355,973.5,3.49,-999.0,yes,yes,no,300234064823080,BD2GI,AOML,ARAON,South
2018-08-13T19:00:28Z,1534186829,2018,19,0,225.792,225.792,-58.3,-93.354,972.8,3.49,-999.0,yes,yes,no,300234064823080,BD2GI,AOML,ARAON,South
2018-08-13T19:59:31Z,1534190371,2018,20,0,225.833,225.833,-58.305,-93.356,972.0,3.49,-999.0,yes,yes,no,300234064823080,BD2GI,AOML,ARAON,South
2018-08-13T21:00:00Z,1534194000,2018,21,0,225.875,225.875,-58.31,-93.355,971.8,3.46,-999.0,yes,yes,no,300234064823080,BD2GI,AOML,ARAON,South
2018-08-13T22:00:28Z,1534197629,2018,22,0,225.917,225.917,-58.313,-93.354,972.1,3.46,-999.0,yes,yes,no,300234064823080,BD2GI,AOML,ARAON,South
2018-08-13T22:59:31Z,1534201171,2018,23,0,225.958,225.958,-58.313,-93.343,973.5,3.46,-999.0,yes,yes,no,300234064823080,BD2GI,AOML,ARAON,South
2018-08-14T00:00:00Z,1534204800,2018,0,0,226.0,226.0,-58.31,-93.328,975.1,3.46,-999.0,yes,yes,no,300234064823080,BD2GI,AOML,ARAON,South
2018-08-14T01:00:28Z,1534208429,2018,1,0,226.042,226.042,-58.308,-93.313,976.0,3.46,-999.0,yes,yes,no,300234064823080,BD2GI,AOML,ARAON,South
2018-08-14T01:59:31Z,1534211971,2018,2,0,226.083,226.083,-58.306,-93.299,976.4,3.46,-999.0,yes,yes,no,300234064823080,BD2GI,AOML,ARAON,South
2018-08-14T03:00:00Z,1534215600,2018,3,0,226.125,226.125,-58.303,-93.288,976.3,3.46,-999.0,yes,yes,no,300234064823080,BD2GI,AOML,ARAON,South
2018-08-14T04:00:28Z,1534219229,2018,4,0,226.167,226.167,-58.302,-93.28,975.6,3.46,-999.0,yes,yes,no,300234064823080,BD2GI,AOML,ARAON,South
2018-08-14T04:59:31Z,1534222771,2018,5,0,226.208,226.208,-58.302,-93.276,974.9,3.46,-999.0,yes,yes,no,300234064823080,BD2GI,AOML,ARAON,South
2018-08-14T06:00:00Z,1534226400,2018,6,0,226.25,226.25,-58.304,-93.273,973.6,3.46,-999.0,yes,yes,no,300234064823080,BD2GI,AOML,ARAON,South
2018-08-14T07:00:28Z,1534230029,2018,7,0,226.292,226.292,-58.307,-93.274,972.0,3.46,-999.0,yes,yes,no,300234064823080,BD2GI,AOML,ARAON,South
2018-08-14T07:59:31Z,1534233571,2018,8,0,226.333,226.333,-58.312,-93.277,969.8,3.46,-999.0,yes,yes,no,300234064823080,BD2GI,AOML,ARAON,South
2018-08-14T09:00:00Z,1534237200,2018,9,0,226.375,226.375,-58.319,-93.284,967.4,3.46,-999.0,yes,yes,no,300234064823080,BD2GI,AOML,ARAON,South
2018-08-14T10:00:28Z,1534240829,2018,10,0,226.417,226.417,-58.325,-93.276,967.6,3.46,-999.0,yes,yes,no,300234064823080,BD2GI,AOML,ARAON,South
2018-08-14T10:59:31Z,1534244371,2018,11,0,226.458,226.458,-58.33,-93.255,968.4,3.46,-999.0,yes,yes,no,300234064823080,BD2GI,AOML,ARAON,South
2018-08-14T12:00:00Z,1534248000,2018,12,0,226.5,226.5,-58.332,-93.228,969.4,3.46,-999.0,yes,yes,no,300234064823080,BD2GI,AOML,ARAON,South
2018-08-14T13:00:28Z,1534251629,2018,13,0,226.542,226.542,-58.332,-93.197,970.4,3.42,-999.0,yes,yes,no,300234064823080,BD2GI,AOML,ARAON,South
2018-08-14T13:59:31Z,1534255171,2018,14,0,226.583,226.583,-58.331,-93.171,971.2,3.36,-999.0,yes,yes,no,300234064823080,BD2GI,AOML,ARAON,South
2018-08-14T15:00:00Z,1534258800,2018,15,0,226.625,226.625,-58.329,-93.149,972.1,3.39,-999.0,yes,yes,no,300234064823080,BD2GI,AOML,ARAON,South
2018-08-14T16:00:28Z,1534262429,2018,16,0,226.667,226.667,-58.328,-93.132,972.3,3.42,-999.0,yes,yes,no,300234064823080,BD2GI,AOML,ARAON,South
2018-08-14T16:59:31Z,1534265971,2018,17,0,226.708,226.708,-58.33,-93.117,972.0,3.42,-999.0,yes,yes,no,300234064823080,BD2GI,AOML,ARAON,South
2018-08-14T18:00:00Z,1534269600,2018,18,0,226.75,226.75,-58.332,-93.107,972.0,3.46,-999.0,yes,yes,no,300234064823080,BD2GI,AOML,ARAON,South
2018-08-14T19:00:28Z,1534273229,2018,19,0,226.792,226.792,-58.335,-93.098,971.7,3.46,-999.0,yes,yes,no,300234064823080,BD2GI,AOML,ARAON,South
2018-08-14T19:59:31Z,1534276771,2018,20,0,226.833,226.833,-58.338,-93.095,970.6,3.49,-999.0,yes,yes,no,300234064823080,BD2GI,AOML,ARAON,South
2018-08-14T21:00:00Z,1534280400,2018,21,0,226.875,226.875,-58.343,-93.092,970.2,3.49,-999.0,yes,yes,no,300234064823080,BD2GI,AOML,ARAON,South
2018-08-14T22:00:28Z,1534284029,2018,22,0,226.917,226.917,-58.348,-93.093,969.1,3.49,-999.0,yes,yes,no,300234064823080,BD2GI,AOML,ARAON,South
2018-08-14T22:59:31Z,1534287571,2018,23,0,226.958,226.958,-58.355,-93.094,968.6,3.49,-999.0,yes,yes,no,300234064823080,BD2GI,AOML,ARAON,South
2018-08-15T00:00:00Z,1534291200,2018,0,0,227.0,227.0,-58.363,-93.091,968.2,3.49,-999.0,yes,yes,no,300234064823080,BD2GI,AOML,ARAON,South
2018-08-15T01:00:28Z,1534294829,2018,1,0,227.042,227.042,-58.369,-93.083,968.1,3.49,-999.0,yes,yes,no,300234064823080,BD2GI,AOML,ARAON,South
2018-08-15T01:59:31Z,1534298371,2018,2,0,227.083,227.083,-58.373,-93.071,968.3,3.46,-999.0,yes,yes,no,300234064823080,BD2GI,AOML,ARAON,South
2018-08-15T03:00:00Z,1534302000,2018,3,0,227.125,227.125,-58.375,-93.054,968.0,3.42,-999.0,yes,yes,no,300234064823080,BD2GI,AOML,ARAON,South
2018-08-15T04:00:28Z,1534305629,2018,4,0,227.167,227.167,-58.376,-93.039,967.9,3.42,-999.0,yes,yes,no,300234064823080,BD2GI,AOML,ARAON,South
2018-08-15T04:59:31Z,1534309171,2018,5,0,227.208,227.208,-58.377,-93.027,967.8,3.49,-999.0,yes,yes,no,300234064823080,BD2GI,AOML,ARAON,South
2018-08-15T06:00:00Z,1534312800,2018,6,0,227.25,227.25,-58.378,-93.014,967.1,3.49,-999.0,yes,yes,no,300234064823080,BD2GI,AOML,ARAON,South
2018-08-15T07:00:28Z,1534316429,2018,7,0,227.292,227.292,-58.377,-93.006,966.5,3.46,-999.0,yes,yes,no,300234064823080,BD2GI,AOML,ARAON,South
2018-08-15T07:59:31Z,1534319971,2018,8,0,227.333,227.333,-58.379,-93.002,966.1,3.46,-999.0,yes,yes,no,300234064823080,BD2GI,AOML,ARAON,South
2018-08-15T09:00:00Z,1534323600,2018,9,0,227.375,227.375,-58.382,-92.997,965.8,3.49,-999.0,yes,yes,no,300234064823080,BD2GI,AOML,ARAON,South
2018-08-15T10:00:28Z,1534327229,2018,10,0,227.417,227.417,-58.386,-92.991,965.1,3.49,-999.0,yes,yes,no,300234064823080,BD2GI,AOML,ARAON,South
2018-08-15T10:59:31Z,1534330771,2018,11,0,227.458,227.458,-58.392,-92.985,964.7,3.46,-999.0,yes,yes,no,300234064823080,BD2GI,AOML,ARAON,South
2018-08-15T12:00:00Z,1534334400,2018,12,0,227.5,227.5,-58.399,-92.978,963.6,3.46,-999.0,yes,yes,no,300234064823080,BD2GI,AOML,ARAON,South
2018-08-15T13:00:28Z,1534338029,2018,13,0,227.542,227.542,-58.407,-92.971,962.4,3.46,-999.0,yes,yes,no,300234064823080,BD2GI,AOML,ARAON,South
2018-08-15T13:59:31Z,1534341571,2018,14,0,227.583,227.583,-58.412,-92.96,963.2,3.46,-999.0,yes,yes,no,300234064823080,BD2GI,AOML,ARAON,South
2018-08-15T15:00:00Z,1534345200,2018,15,0,227.625,227.625,-58.409,-92.948,965.8,3.46,-999.0,yes,yes,no,300234064823080,BD2GI,AOML,ARAON,South
2018-08-15T16:00:28Z,1534348829,2018,16,0,227.667,227.667,-58.405,-92.939,967.7,3.46,-999.0,yes,yes,no,300234064823080,BD2GI,AOML,ARAON,South
2018-08-15T16:59:31Z,1534352371,2018,17,0,227.708,227.708,-58.403,-92.932,969.0,3.46,-999.0,yes,yes,no,300234064823080,BD2GI,AOML,ARAON,South
2018-08-15T18:00:00Z,1534356000,2018,18,0,227.75,227.75,-58.403,-92.922,969.7,3.46,-999.0,yes,yes,no,300234064823080,BD2GI,AOML,ARAON,South
2018-08-15T19:00:28Z,1534359629,2018,19,0,227.792,227.792,-58.404,-92.913,970.3,3.46,-999.0,yes,yes,no,300234064823080,BD2GI,AOML,ARAON,South
2018-08-15T19:59:31Z,1534363171,2018,20,0,227.833,227.833,-58.406,-92.904,970.9,3.46,-999.0,yes,yes,no,300234064823080,BD2GI,AOML,ARAON,South
2018-08-15T21:00:00Z,1534366800,2018,21,0,227.875,227.875,-58.409,-92.895,971.2,3.46,-999.0,yes,yes,no,300234064823080,BD2GI,AOML,ARAON,South
2018-08-15T22:00:28Z,1534370429,2018,22,0,227.917,227.917,-58.413,-92.89,971.2,3.49,-999.0,yes,yes,no,300234064823080,BD2GI,AOML,ARAON,South
2018-08-15T22:59:31Z,1534373971,2018,23,0,227.958,227.958,-58.417,-92.886,971.3,3.49,-999.0,yes,yes,no,300234064823080,BD2GI,AOML,ARAON,South
2018-08-16T00:00:00Z,1534377600,2018,0,0,228.0,228.0,-58.421,-92.883,971.5,3.49,-999.0,yes,yes,no,300234064823080,BD2GI,AOML,ARAON,South
2018-08-16T01:00:28Z,1534381229,2018,1,0,228.042,228.042,-58.425,-92.877,971.9,3.49,-999.0,yes,yes,no,300234064823080,BD2GI,AOML,ARAON,South
2018-08-16T01:59:31Z,1534384771,2018,2,0,228.083,228.083,-58.43,-92.871,971.5,3.46,-999.0,yes,yes,no,300234064823080,BD2GI,AOML,ARAON,South
2018-08-16T03:00:00Z,1534388400,2018,3,0,228.125,228.125,-58.434,-92.866,971.6,3.46,-999.0,yes,yes,no,300234064823080,BD2GI,AOML,ARAON,South
2018-08-16T04:00:28Z,1534392029,2018,4,0,228.167,228.167,-58.439,-92.859,971.4,3.46,-999.0,yes,yes,no,300234064823080,BD2GI,AOML,ARAON,South
2018-08-16T04:59:31Z,1534395571,2018,5,0,228.208,228.208,-58.446,-92.848,971.3,3.46,-999.0,yes,yes,no,300234064823080,BD2GI,AOML,ARAON,South
2018-08-16T06:00:00Z,1534399200,2018,6,0,228.25,228.25,-58.452,-92.834,971.2,3.42,-999.0,yes,yes,no,300234064823080,BD2GI,AOML,ARAON,South
2018-08-16T07:00:28Z,1534402829,2018,7,0,228.292,228.292,-58.456,-92.82,971.2,3.42,-999.0,yes,yes,no,300234064823080,BD2GI,AOML,ARAON,South
2018-08-16T07:59:31Z,1534406371,2018,8,0,228.333,228.333,-58.459,-92.805,971.5,3.46,-999.0,yes,yes,no,300234064823080,BD2GI,AOML,ARAON,South
2018-08-16T09:00:00Z,1534410000,2018,9,0,228.375,228.375,-58.458,-92.788,971.9,3.46,-999.0,yes,yes,no,300234064823080,BD2GI,AOML,ARAON,South
2018-08-16T10:00:28Z,1534413629,2018,10,0,228.417,228.417,-58.457,-92.773,972.1,3.46,-999.0,yes,yes,no,300234064823080,BD2GI,AOML,ARAON,South
2018-08-16T10:59:31Z,1534417171,2018,11,0,228.458,228.458,-58.454,-92.759,972.4,3.42,-999.0,yes,yes,no,300234064823080,BD2GI,AOML,ARAON,South
2018-08-16T12:00:00Z,1534420800,2018,12,0,228.5,228.5,-58.45,-92.747,973.1,3.42,-999.0,yes,yes,no,300234064823080,BD2GI,AOML,ARAON,South
2018-08-16T13:00:28Z,1534424429,2018,13,0,228.542,228.542,-58.447,-92.737,973.2,3.42,-999.0,yes,yes,no,300234064823080,BD2GI,AOML,ARAON,South
2018-08-16T13:59:31Z,1534427971,2018,14,0,228.583,228.583,-58.445,-92.727,973.5,3.42,-999.0,yes,yes,no,300234064823080,BD2GI,AOML,ARAON,South
2018-08-16T15:00:00Z,1534431600,2018,15,0,228.625,228.625,-58.443,-92.718,973.8,3.42,-999.0,yes,yes,no,300234064823080,BD2GI,AOML,ARAON,South
2018-08-16T16:00:28Z,1534435229,2018,16,0,228.667,228.667,-58.442,-92.709,974.1,3.42,-999.0,yes,yes,no,300234064823080,BD2GI,AOML,ARAON,South
2018-08-16T16:59:31Z,1534438771,2018,17,0,228.708,228.708,-58.44,-92.703,974.6,3.42,-999.0,yes,yes,no,300234064823080,BD2GI,AOML,ARAON,South
2018-08-16T18:00:00Z,1534442400,2018,18,0,228.75,228.75,-58.439,-92.697,975.5,3.42,-999.0,yes,yes,no,300234064823080,BD2GI,AOML,ARAON,South
2018-08-16T19:00:28Z,1534446029,2018,19,0,228.792,228.792,-58.438,-92.687,975.9,3.46,-999.0,yes,yes,no,300234064823080,BD2GI,AOML,ARAON,South
2018-08-16T19:59:31Z,1534449571,2018,20,0,228.833,228.833,-58.435,-92.674,976.5,3.46,-999.0,yes,yes,no,300234064823080,BD2GI,AOML,ARAON,South
2018-08-16T21:00:00Z,1534453200,2018,21,0,228.875,228.875,-58.433,-92.658,977.0,3.42,-999.0,yes,yes,no,300234064823080,BD2GI,AOML,ARAON,South
2018-08-16T22:00:28Z,1534456829,2018,22,0,228.917,228.917,-58.43,-92.641,977.5,3.46,-999.0,yes,yes,no,300234064823080,BD2GI,AOML,ARAON,South
2018-08-16T22:59:31Z,1534460371,2018,23,0,228.958,228.958,-58.425,-92.625,977.9,3.46,-999.0,yes,yes,no,300234064823080,BD2GI,AOML,ARAON,South
2018-08-17T00:00:00Z,1534464000,2018,0,0,229.0,229.0,-58.417,-92.613,978.1,3.42,-999.0,yes,yes,no,300234064823080,BD2GI,AOML,ARAON,South
2018-08-17T01:00:28Z,1534467629,2018,1,0,229.042,229.042,-58.409,-92.604,978.8,3.39,-999.0,yes,yes,no,300234064823080,BD2GI,AOML,ARAON,South
2018-08-17T01:59:31Z,1534471171,2018,2,0,229.083,229.083,-58.401,-92.597,979.0,3.32,-999.0,yes,yes,no,300234064823080,BD2GI,AOML,ARAON,South
2018-08-17T03:00:00Z,1534474800,2018,3,0,229.125,229.125,-58.395,-92.589,979.6,3.32,-999.0,yes,yes,no,300234064823080,BD2GI,AOML,ARAON,South
2018-08-17T04:00:28Z,1534478429,2018,4,0,229.167,229.167,-58.389,-92.584,980.2,3.29,-999.0,yes,yes,no,300234064823080,BD2GI,AOML,ARAON,South
2018-08-17T04:59:31Z,1534481971,2018,5,0,229.208,229.208,-58.383,-92.581,980.7,3.29,-999.0,yes,yes,no,300234064823080,BD2GI,AOML,ARAON,South
2018-08-17T06:00:00Z,1534485600,2018,6,0,229.25,229.25,-58.378,-92.58,981.0,3.29,-999.0,yes,yes,no,300234064823080,BD2GI,AOML,ARAON,South
2018-08-17T07:00:28Z,1534489229,2018,7,0,229.292,229.292,-58.374,-92.575,981.7,3.32,-999.0,yes,yes,no,300234064823080,BD2GI,AOML,ARAON,South
2018-08-17T07:59:31Z,1534492771,2018,8,0,229.333,229.333,-58.37,-92.57,982.2,3.32,-999.0,yes,yes,no,300234064823080,BD2GI,AOML,ARAON,South
2018-08-17T09:00:00Z,1534496400,2018,9,0,229.375,229.375,-58.367,-92.559,983.1,3.32,-999.0,yes,yes,no,300234064823080,BD2GI,AOML,ARAON,South
2018-08-17T10:00:28Z,1534500029,2018,10,0,229.417,229.417,-58.364,-92.546,983.9,3.32,-999.0,yes,yes,no,300234064823080,BD2GI,AOML,ARAON,South
2018-08-17T10:59:31Z,1534503571,2018,11,0,229.458,229.458,-58.361,-92.532,984.9,3.36,-999.0,yes,yes,no,300234064823080,BD2GI,AOML,ARAON,South
2018-08-17T12:00:00Z,1534507200,2018,12,0,229.5,229.5,-58.356,-92.516,985.9,3.32,-999.0,yes,yes,no,300234064823080,BD2GI,AOML,ARAON,South
2018-08-17T13:00:28Z,1534510829,2018,13,0,229.542,229.542,-58.35,-92.503,987.1,3.36,-999.0,yes,yes,no,300234064823080,BD2GI,AOML,ARAON,South
2018-08-17T13:59:31Z,1534514371,2018,14,0,229.583,229.583,-58.343,-92.492,988.5,3.36,-999.0,yes,yes,no,300234064823080,BD2GI,AOML,ARAON,South
2018-08-17T15:00:00Z,1534518000,2018,15,0,229.625,229.625,-58.333,-92.484,990.2,3.36,-999.0,yes,yes,no,300234064823080,BD2GI,AOML,ARAON,South
2018-08-17T16:00:28Z,1534521629,2018,16,0,229.667,229.667,-58.324,-92.479,991.6,3.36,-999.0,yes,yes,no,300234064823080,BD2GI,AOML,ARAON,South
2018-08-17T16:59:31Z,1534525171,2018,17,0,229.708,229.708,-58.315,-92.473,993.2,3.36,-999.0,yes,yes,no,300234064823080,BD2GI,AOML,ARAON,South
2018-08-17T18:00:00Z,1534528800,2018,18,0,229.75,229.75,-58.306,-92.469,994.5,3.36,-999.0,yes,yes,no,300234064823080,BD2GI,AOML,ARAON,South
2018-08-17T19:00:28Z,1534532429,2018,19,0,229.792,229.792,-58.297,-92.463,995.3,3.36,-999.0,yes,yes,no,300234064823080,BD2GI,AOML,ARAON,South